North Pole, Alaska, United States (99705)
Lat: 64.75N, Lon: 147.35W
Wx Zone: AKZ222
Local Info
Past Weather Observations for Thursday, February 26, 2015

NOTE: This archive is for the closest National Weather Service station to North Pole. Information may differ from the station used for current weather conditions.

Click here for Long-term Archive

Time Weather Temperature Dewpoint Humidity Pressure Winds Precip Visibility
21:55
Partly Cloudy
10°F / -12°C 5°F / -15°C 79% 30.51 in
(1033 mb)
Calm - 7SM
20:55
Partly Cloudy
10°F / -12°C 3°F / -16°C 72% 30.51 in
(1033 mb)
Calm - 7SM
19:55
Mostly Cloudy
10°F / -12°C 7°F / -14°C 85% 30.51 in
(1033 mb)
Calm - 7SM
18:55
Mostly Cloudy
16°F / -9°C 12°F / -11°C 86% 30.54 in
(1034 mb)
Calm - 7SM
17:55
Mostly Cloudy
18°F / -8°C 14°F / -10°C 86% 30.51 in
(1033 mb)
Calm - 7SM
16:55
Mostly Cloudy
19°F / -7°C 16°F / -9°C 86% 30.54 in
(1034 mb)
Calm - 7SM
15:55
Mostly Cloudy
18°F / -8°C 12°F / -11°C 79% 30.54 in
(1034 mb)
ESE 4.6 mph
(ESE 7 kph)
- 13SM
14:55
Overcast
19°F / -7°C 14°F / -10°C 79% 30.54 in
(1034 mb)
Calm - 13SM
13:55
Mostly Cloudy
19°F / -7°C 14°F / -10°C 79% 30.54 in
(1034 mb)
Calm - 13SM
12:55
Mostly Cloudy
18°F / -8°C 12°F / -11°C 79% 30.54 in
(1034 mb)
Calm - 13SM
11:55
Mostly Cloudy
18°F / -8°C 10°F / -12°C 73% 30.54 in
(1034 mb)
Calm - 13SM
10:55
Mostly Cloudy
12°F / -11°C 7°F / -14°C 79% 30.54 in
(1034 mb)
E 5.8 mph
(E 9 kph)
- 13SM
09:55
Overcast
12°F / -11°C 7°F / -14°C 79% 30.54 in
(1034 mb)
E 4.6 mph
(E 7 kph)
- 13SM
08:55
Overcast
10°F / -12°C 5°F / -15°C 79% 30.51 in
(1033 mb)
E 4.6 mph
(E 7 kph)
- 13SM
07:55
Overcast
12°F / -11°C 5°F / -15°C 73% 30.51 in
(1033 mb)
NE 4.6 mph
(NE 7 kph)
- 13SM
06:55
Mostly Cloudy
10°F / -12°C 1°F / -17°C 67% 30.51 in
(1033 mb)
Calm - 10SM
06:30
Mostly Cloudy
10°F / -12°C 3°F / -16°C 72% 30.51 in
(1033 mb)
Calm - 10SM
05:56
Mostly Cloudy
9°F / -13°C 1°F / -17°C 72% 30.51 in
(1033 mb)
Calm - 10SM
05:32
Overcast
7°F / -14°C °F / -18°C 72% 30.51 in
(1033 mb)
Calm - 10SM
05:23
Mostly Cloudy
7°F / -14°C °F / -18°C 72% 30.51 in
(1033 mb)
Calm - 10SM
05:15
Partly Cloudy
7°F / -14°C °F / -18°C 72% 30.51 in
(1033 mb)
Calm - 10SM
04:56
Clear
7°F / -14°C °F / -18°C 72% 30.51 in
(1033 mb)
Calm - 10SM
03:56
Clear
3°F / -16°C -2°F / -19°C 78% 30.51 in
(1033 mb)
Calm - 10SM
02:56
Clear
7°F / -14°C °F / -18°C 72% 30.51 in
(1033 mb)
SE 3.5 mph
(SE 6 kph)
- 7SM
02:33
Partly Cloudy
7°F / -14°C °F / -18°C 72% 30.51 in
(1033 mb)
Calm - 8SM
02:25
Partly Cloudy
Hazy
7°F / -14°C °F / -18°C 72% 30.51 in
(1033 mb)
NNW 3.5 mph
(NNW 6 kph)
- 2SM
01:56
Obscured
Hazy
9°F / -13°C 1°F / -17°C 72% 30.51 in
(1033 mb)
Calm - 1/4SM
00:56
Obscured
Hazy
10°F / -12°C 3°F / -16°C 72% 30.51 in
(1033 mb)
Calm - 1/4SM
Time Weather Temperature Dewpoint Humidity Pressure Winds Precip Visibility


Weather for websites

WeatherForYou.com, LLC is not responsible for any damages or problems caused by this service. Current weather conditions are obtained from the closest station including government and personal stations which may have varying degrees of accuracy. Weather forecasts are derived from the NOAA NDFD. Like all things, this site belongs to Jesus Christ... He just trusts me to maintain it. If you have any questions or comments email webmaster@weatherforyou.com

Copyright © 2015, WeatherForYou.com LLC. All rights reserved.